SWR8T LSZH-KORD

Flight info

Callsign SWR8T
Flight time N/A
Altitude 36000
Route VEBIT T10 TORPA DCT REKLA DCT RLP DCT ROTSI DCT KOTUN DCT AMAXA DCT VESAN DCT RATUK DCT SOVAT L613 SANDY DCT OKSAW DCT TEWXI DCT LIPGO DCT REVNU DCT PIKIL/M080F370 NATB IRLOK/N0467F380 N736B MT DCT NOTAP DCT ODAXY WYNDE3
Aircraft A343/H-SDE2E3FGHIJ4J5M1RWXY/LB1D1

Departure

Time N/A
Airport Zürich Airport (LSZH)

Arrival

Time 2026-05-03 20:17
Airport Chicago O'Hare International Airport (KORD)
Time Latitude Longitude Altitude Speed Heading
2026-05-03 20:15 41.96598 -87.75242 2686 ft 197 kts 263°
2026-05-03 20:15 41.96596 -87.77040 2420 ft 187 kts 263°
2026-05-03 20:15 41.96594 -87.78728 2215 ft 174 kts 264°
2026-05-03 20:15 41.96595 -87.80286 1973 ft 159 kts 264°
2026-05-03 20:16 41.96588 -87.81720 1771 ft 149 kts 263°
2026-05-03 20:16 41.96582 -87.83113 1574 ft 149 kts 265°
2026-05-03 20:16 41.96594 -87.84513 1365 ft 151 kts 263°
2026-05-03 20:16 41.96581 -87.85912 1183 ft 148 kts 264°
2026-05-03 20:17 41.96587 -87.87267 974 ft 143 kts 266°
2026-05-03 20:17 41.96584 -87.88584 794 ft 139 kts 263°
2026-05-03 20:17 41.96574 -87.89841 666 ft 123 kts 270°
2026-05-03 20:17 41.96575 -87.90601 674 ft 43 kts 270°
2026-05-03 20:18 41.96576 -87.90961 674 ft 27 kts 269°
2026-05-03 20:18 41.96578 -87.91171 674 ft 22 kts 277°
2026-05-03 20:18 41.96622 -87.91365 673 ft 21 kts 288°
2026-05-03 20:18 41.96676 -87.91530 678 ft 18 kts 297°
2026-05-03 20:19 41.96729 -87.91685 677 ft 18 kts 283°
2026-05-03 20:19 41.96738 -87.91851 680 ft 18 kts 270°
2026-05-03 20:19 41.96739 -87.92017 678 ft 14 kts 273°
2026-05-03 20:19 41.96811 -87.92086 677 ft 14 kts 359°
2026-05-03 20:20 41.96912 -87.92084 679 ft 14 kts
2026-05-03 20:20 41.97011 -87.92071 679 ft 14 kts 28°
2026-05-03 20:20 41.97036 -87.91952 680 ft 14 kts 87°
2026-05-03 20:20 41.97040 -87.91815 681 ft 15 kts 89°
2026-05-03 20:21 41.97040 -87.91678 681 ft 15 kts 92°
2026-05-03 20:21 41.97037 -87.91537 680 ft 16 kts 91°
2026-05-03 20:21 41.97040 -87.91380 680 ft 18 kts 86°
2026-05-03 20:21 41.97042 -87.91200 678 ft 20 kts 90°
2026-05-03 20:22 41.97086 -87.91106 674 ft 8 kts 356°
2026-05-03 20:22 41.97165 -87.91184 677 ft 19 kts 318°
2026-05-03 20:22 41.97271 -87.91271 677 ft 18 kts
2026-05-03 20:22 41.97390 -87.91151 677 ft 23 kts 27°
2026-05-03 20:23 41.97523 -87.91020 674 ft 25 kts 44°
2026-05-03 20:23 41.97681 -87.90938 674 ft 25 kts
2026-05-03 20:23 41.97850 -87.90901 672 ft 15 kts 11°
2026-05-03 20:23 41.97959 -87.90876 671 ft 17 kts
2026-05-03 20:24 41.98094 -87.90848 666 ft 21 kts
2026-05-03 20:24 41.98189 -87.90836 666 ft 12 kts 20°
2026-05-03 20:24 41.98228 -87.90747 664 ft 13 kts 62°
2026-05-03 20:24 41.98223 -87.90689 662 ft 4 kts 134°
2026-05-03 20:25 41.98200 -87.90672 663 ft 4 kts 152°
2026-05-03 20:25 41.98194 -87.90668 664 ft 1 kts 153°
2026-05-03 20:25 41.98192 -87.90667 664 ft 0 kts 153°